map of ZRH home
Great Circle Mapper logo
ZRH - Airport
Location
City:  Zürich, Zürich, Switzerland
Name:Zürich-Kloten
ICAO / IATA:LSZH / ZRH

Details
Type:Airport (Flugplatz, Airfield)
Use:Public/Civil, International (customs port of entry)
Latitude:47°27'53"N (47.464722)
Longitude:8°32'57"E (8.549167)
Datum:WGS 1984
Elevation:1416 ft (432 m)
Variation:2.05°E (WMM2015 magnetic declination)
0.12° annual change
Runways:3
Longest:12139 × 197 ft (3700 × 60 m), paved

Time
Time Zone:UTC+1 (DST+2)
Local Time:

Weather
METAR:LSZH 012250Z 32001KT CAVOK 19/15 Q1020 NOSIG
TAF:LSZH 012025Z 0121/0303 VRB03KT CAVOK TX35/0215Z TN16/0203Z
BECMG 0210/0213 04006KT
BECMG 0218/0221 VRB03KT

Related Locations
Nearby:
Farthest:CHT: 12085 mi / 19448 km
Waitangi [Tuuta], Chatham Islands, NZ

Find:

   beyond  
but within

Other Information
Maps:
NOTAMs:
Links:
Sources:

  
flag of Switzerland
flag of Zürich
  

Airport Diagram

Airport diagram for ZRH

Airport diagram (OBSOLETE) from NGA

Sectional Chart

Flight Planning
at skyvector.com

Satellite Image

Google Maps Satellite view

 

Copyright © 2004-2015 Karl L. Swartz. All rights reserved.
The Great Circle Mapper name and logo are trademarks of the Great Circle Mapper.
All other trademarks mentioned herein belong to their respective owners.
Please see credits for attibutions and further copyright information.

  Follow gcmap on Facebook Follow gcmap on Twitter Follow gcmap on Google+

hCard Microformat

Geo Microformat